Regional Weather Roundup
Issued by NWS

Home | Current Version | Previous Version | Graphics & Text | Print | Product List | Glossary On
Versions: 1 2 3 4 5 6 7 8 9 10 11 12 13 14 15 16 17 18 19 20 21 22 23 24 25 26 27 28 29 30 31 32 33 34 35 36 37 38 39 40 41 42 43 44 45 46 47 48 49 50
000
ASUS43 KLSX 260807
RWRMO

WEATHER SUMMARY FOR MISSOURI
NATIONAL WEATHER SERVICE SPRINGFIELD MO
300 AM CDT THU APR 26 2018

NOTE: "FAIR" INDICATES FEW OR NO CLOUDS BELOW 12,000 FEET WITH NO
       SIGNIFICANT WEATHER AND/OR OBSTRUCTIONS TO VISIBILITY.
       CURRENT SKY AND/OR WEATHER CONDITIONS ARE NOT AVAILABLE FOR
       CHILLICOTHE AND FARMINGTON.

MOZ001>031-035>038-043-044-053-054-260900-
...NORTHERN AND WESTERN MISSOURI...

CITY           SKY/WX    TMP DP  RH WIND       PRES   REMARKS
KANSAS CTY INT CLEAR     40  38  93 SW3       29.98F
KANSAS C DTWN  PTCLDY    44  42  93 CALM      29.98F
LEE`S SUMMIT   CLEAR     45  45 100 NW5       29.98F FOG
ST JOSEPH      CLOUDY    38  36  92 CALM      29.99F
CHILLICOTHE      N/A     39  37  92 CALM      29.98F
KIRKSVILLE     CLEAR     38  38 100 NW6       29.96F

$$
MOZ066>068-077>081-088>096-101>105-260900-
...SOUTHWEST MISSOURI...

CITY           SKY/WX    TMP DP  RH WIND       PRES   REMARKS
SPRINGFIELD    CLOUDY    50  47  89 N8        29.95F
JOPLIN         MOCLDY    50  49  96 NE3       29.97F FOG
BRANSON        CLOUDY    50  50 100 N6        29.94S FOG

$$
MOZ032>034-039>042-045>050-055>058-069>072-260900-
...CENTRAL MISSOURI...

CITY           SKY/WX    TMP DP  RH WIND       PRES   REMARKS
COLUMBIA       PTCLDY    48  48 100 W5        29.94F FOG
JEFFERSON CITY CLOUDY    50  49  96 NW5       29.95F FOG
ROLLA          MOCLDY    48  46  93 N6        29.94S FOG
SEDALIA        FOG       47  47 100 CALM      29.97F VSB 3/4
WHITEMAN AFB   FOG       45  44  99 W5        29.92  VSB 1/4
WARRENSBURG    FOG       43  43 100 W3        29.97F VSB 1/4
OSAGE BEACH    CLOUDY    48  48 100 CALM      29.95F FOG

$$
MOZ051-052-059>065-260900-
...EAST CENTRAL MISSOURI...

CITY           SKY/WX    TMP DP  RH WIND       PRES   REMARKS
ST LOUIS INTL  CLOUDY    53  48  83 CALM      29.92F
SPIRIT OF STL  MOCLDY    51  49  92 W6        29.92F
ST CHARLES       N/A     53  42  66 N7        29.91F

$$
MOZ072>076-082>087-097>100-106>115-260900-
...SOUTH CENTRAL AND SOUTHEAST MISSOURI...

CITY           SKY/WX    TMP DP  RH WIND       PRES   REMARKS
CAPE GIRARDEAU CLOUDY    56  52  86 N5        29.88F
FARMINGTON     LGT RAIN  50  49  96 N6        29.91F
POPLAR BLUFF   CLOUDY    56  52  86 N9        29.88F
WEST PLAINS    CLOUDY    51  49  92 N9        29.91F

$$




USA.gov is the U.S. government's official web portal to all federal, state and local government web resources and services.